Location: Altoona
(40.5167°N, 78.4000°W)
Time: 15:00:35
(UTC-05:00)

Daily predictions for brighter satellites

Satellite Brightness Start Highest point End
(mag) Time Altitude Azimuth Time Altitude Azimuth Time Altitude Azimuth
Cosmos 1484 Rocket 3.8 18:26:46 10° S 18:30:36 52° W 18:34:24 10° NNW
Cosmos 2322 4.1 18:25:25 10° NNW 18:31:07 74° WSW 18:36:46 10° SSE
Cosmos 1300 Rocket 3.6 18:28:03 10° S 18:32:29 86° E 18:36:57 10° N
Cosmos 2285 Rocket 4.4 18:27:11 10° N 18:33:17 43° ENE 18:39:20 10° SE
Cosmos 1238 Rocket 2.1 18:32:37 10° N 18:35:35 87° W 18:38:45 10° S
Hubble Space Telescope 3.0 18:38:36 10° SSW 18:40:56 15° S 18:43:17 10° SE
Cosmos 2237 Rocket 3.2 18:37:38 10° N 18:42:22 26° NE 18:47:05 10° ESE
Cosmos 614 Rocket 4.3 18:37:52 10° SSW 18:42:56 70° WNW 18:48:00 10° NNE
Cosmos 2297 Rocket 3.5 18:40:07 10° SE 18:43:54 19° E 18:47:42 10° ENE
Cosmos 405 Rocket 3.8 18:43:55 10° NNE 18:47:19 26° ENE 18:50:41 10° SE
Cosmos 1741 Rocket 4.1 18:42:14 10° SSW 18:47:27 82° WNW 18:52:42 10° NNE
Cosmos 2333 4.2 18:42:31 10° NNW 18:48:17 72° ENE 18:54:02 10° SSE
COSMO-SKYMED 1 3.7 18:45:31 10° N 18:49:43 48° WNW 18:53:53 10° SSW
ALOS 2.6 18:45:56 10° SE 18:50:20 43° ENE 18:54:45 10° N
Cosmos 2219 Rocket 2.4 18:46:25 10° NNW 18:51:51 49° ENE 18:57:17 10° SE
COSMOS 2428 2.7 18:46:33 10° NNW 18:52:16 87° ENE 18:57:58 10° SSE
H-2A R/B 3.8 18:49:45 10° SE 18:52:50 25° ENE 18:55:57 10° NNE
Cosmos 2360 Rocket 3.7 18:47:59 10° NW 18:53:15 41° WSW 18:58:30 10° S
CZ-2D R/B 4.5 18:54:44 11° ESE 18:57:34 22° ENE 19:00:32 10° NNE
SJ-6B 2.7 18:55:16 10° SSE 18:59:13 76° ENE 19:03:06 10° N
Meteor 2-4 Rocket 3.7 18:54:21 10° N 18:59:51 88° WSW 19:05:13 10° S
USA 229 DEB 3.8 18:53:46 10° NNW 19:00:57 82° NE 19:08:13 10° SE
USA 229 3.8 18:53:52 10° NNW 19:01:03 82° NE 19:08:19 10° SE
Cosmos 2227 Rocket 2.7 18:59:18 10° S 19:04:28 37° ESE 19:09:38 10° NE
Cosmos 2219 3.7 18:59:39 10° SSW 19:05:22 66° WNW 19:11:06 10° NNE
BREEZE-M DEB (TANK) 3.6 19:05:09 10° NW 19:08:17 60° NNE 19:15:07 15° ESE
Cosmos 468 Rocket 4.1 19:04:01 10° N 19:09:11 54° ENE 19:14:22 10° SE
Resurs 01 Rocket 1.8 19:05:20 10° SSE 19:09:34 49° ENE 19:13:50 10° N
Meteor 1-23 Rocket 4.3 19:05:11 10° N 19:11:00 87° W 19:16:43 10° S
Cosmos 1610 Rocket 4.5 19:06:39 10° S 19:12:42 58° E 19:18:42 10° NNE
NOSS 3-1 (A) 4.5 19:06:19 10° NNW 19:13:23 42° NE 19:19:04 18° ESE
Cosmos 1441 Rocket 4.4 19:10:26 10° NNE 19:13:42 24° ENE 19:14:09 23° E
Resurs 1-3 3.8 19:10:58 10° SE 19:15:10 47° ENE 19:19:23 10° N
Cosmos 1025 Rocket 3.1 19:10:53 10° N 19:15:18 80° W 19:19:41 10° S
Spot 2 Rocket 3.5 19:11:02 10° SSE 19:15:58 57° ENE 19:20:58 10° N
Cosmos 2327 Rocket 4.5 19:10:08 10° S 19:16:23 85° E 19:22:47 10° N
ATLAS 2AS CENTAUR R/B 4.5 19:12:10 10° NNW 19:17:51 20° NNE 19:21:49 14° ENE
SL-16 R/B 3.4 19:15:12 10° N 19:19:41 23° NE 19:21:06 21° ENE
FREGAT/IRIS 4.0 19:17:41 10° S 19:20:37 43° W 19:23:35 10° NNW
Cosmos 1892 Rocket 3.5 19:16:51 10° N 19:21:11 59° E 19:25:30 10° SSE
GEOS 3 Rocket 4.1 19:20:20 15° NE 19:24:20 39° ESE 19:29:15 10° S
Atlas Centaur 2 3.9 19:21:21 10° SW 19:27:21 25° SSE 19:30:22 18° SE
GPS 2-04 Rocket1 3.7 19:23:44 10° WSW 19:27:43 41° S 19:29:35 26° SE
Meteor 2-13 Rocket 4.3 19:24:00 10° S 19:30:03 77° E 19:36:10 10° N
NOSS 3-1 (C) 4.1 19:22:50 10° NNW 19:30:20 62° NE 19:36:32 19° SE
Abrixas rocket 3.9 19:28:15 10° WNW 19:31:11 27° NNW 19:32:36 20° NNE
OTV 4 0.9 19:28:42 10° WSW 19:31:35 45° S 19:31:45 44° SSE
Cosmos 1814 Rocket 3.9 19:27:26 10° NNW 19:32:35 66° ENE 19:36:39 16° SSE
Envisat 3.9 19:32:27 27° ENE 19:32:44 28° ENE 19:37:00 10° N
FENGYUN 3A 3.8 19:27:36 10° S 19:33:00 77° WSW 19:38:28 10° NNW
Okean 2 3.6 19:28:50 10° NNW 19:33:01 73° W 19:37:10 10° S
HJ-1C 4.5 19:35:51 10° S 19:39:06 46° W 19:42:23 10° NNW
USA 186 4.2 19:45:05 11° N 19:45:05 11° N 19:45:13 10° N
Cosmos 1980 3.6 19:36:49 10° NNW 19:42:30 81° ENE 19:46:48 18° SSE
Cosmos 1544 Rocket 3.5 19:38:33 10° S 19:42:53 85° W 19:47:14 10° N
NOSS 0 Rocket 4.0 19:37:22 10° NNW 19:43:32 81° WSW 19:49:40 10° SSE
Cosmos 2333 Rocket 2.4 19:40:11 10° NNW 19:45:57 77° WSW 19:51:41 10° SSE
Helios 1B rocket 2.4 19:42:46 10° NNE 19:46:53 60° ESE 19:50:58 10° S
USA 32 4.1 19:44:08 10° N 19:49:15 53° E 19:51:05 36° SE
Helios 1A 2.8 19:52:56 48° SSE 19:54:01 79° ENE 19:58:11 10° N
Cosmos 1975 2.7 19:51:29 10° S 19:55:31 89° E 19:59:36 10° N
Cosmos 1437 3.4 19:53:08 10° NNW 19:56:21 55° W 19:56:58 45° SW
Cosmos 1500 3.0 19:53:56 10° S 19:57:43 88° W 20:01:31 10° N
Cosmos 1602 Rocket 4.2 19:54:40 10° N 19:57:52 40° NNE 19:57:52 40° NNE
Nadezhda 3 Rocket 4.0 19:56:10 10° N 20:02:23 83° W 20:08:35 10° S
Cosmos 1626 Rocket 4.0 19:58:40 10° N 20:02:06 47° NNE 20:02:06 47° NNE
CZ-3 Stage 3 4.4 19:28:58 10° SW 20:03:41 36° S 20:07:53 28° SE
Cosmos 1486 Rocket 4.1 19:59:11 10° SSW 20:04:30 77° WNW 20:09:51 10° NNE
Cosmos 1515 4.1 20:00:42 10° NNW 20:04:31 61° W 20:05:38 40° SSW
Cosmos 2082 3.9 20:02:34 10° SSW 20:08:17 74° WNW 20:14:01 10° NNE
Cosmos 841 Rocket 3.3 20:04:51 10° NNW 20:10:01 81° ENE 20:10:38 68° SE
Spot 1 4.4 20:11:15 44° SSW 20:12:16 60° WSW 20:16:27 10° NNW
ATLAS CENTAUR R/B 3.4 20:11:26 10° WSW 20:13:24 23° W 20:13:24 23° W
Cosmos 2154 Rocket 4.5 20:08:47 10° SSW 20:15:03 62° W 20:21:20 10° N
Cosmos 2341 Rocket 4.1 20:10:37 10° S 20:16:59 80° W 20:23:24 10° N
Cosmos 1763 Rocket 3.7 20:13:38 10° NNW 20:18:45 68° WSW 20:20:13 45° S
Cosmos 1455 Rocket 4.3 20:16:03 10° SSW 20:20:10 40° WNW 20:24:17 10° N
Hubble Space Telescope 3.3 20:19:21 10° SW 20:20:16 12° SSW 20:20:16 12° SSW
Cosmos 2237 Rocket 3.1 20:21:12 10° NW 20:26:39 47° WSW 20:29:46 24° SSW
Cosmos 2297 Rocket 2.7 20:21:50 10° SW 20:27:24 59° WNW 20:33:00 10° NNE
Cosmos 332 Rocket 4.1 20:23:00 10° NNW 20:27:50 62° WSW 20:28:03 61° WSW
Meteor 2-8 Rocket 4.4 20:22:15 10° N 20:28:19 78° W 20:30:43 39° S
Meteor 2-19 Rocket 4.3 20:22:42 10° S 20:28:51 89° W 20:35:04 10° N
OAO 3 Rocket 4.4 20:25:03 10° WSW 20:28:19 34° SSW 20:28:19 34° SSW
Cosmos 2219 Rocket 4.4 20:31:10 10° NW 20:35:26 23° W 20:39:41 10° SSW
Cosmos 371 Rocket 3.8 20:31:44 10° NNW 20:35:46 56° NW 20:35:46 56° NW
Cosmos 2227 Rocket 3.8 20:43:32 10° WSW 20:48:32 31° WNW 20:53:34 10° N
SL-16 R/B 3.1 20:58:36 10° NNW 21:03:01 47° WNW 21:03:01 47° WNW
ATLAS 2AS CENTAUR R/B 3.4 21:02:45 10° NNW 21:09:17 52° N 21:09:17 52° N
Atlas Centaur 2 4.2 21:09:58 10° WSW 21:13:02 22° SW 21:13:02 22° SW
